GEFSCGP_500_meanwind_282.txt.gz
Wind_Speed
13 12 12 10 9 8 6 6 7 8 9 9 9 10 11 11 11 12 12 12 12 13 13 13 13 13 13 12 12 12 12 12 12 12 12 11 10 10 9 9 9 8 8 8
14 14 13 11 9 9 7 6 5 6 6 6 7 8 9 9 10 10 10 11 11 12 12 12 12 13 12 12 12 12 12 12 11 11 11 11 11 10 9 8 9 8 8 7
15 15 14 12 10 9 8 6 4 2 3 4 4 5 5 7 7 8 9 9 10 11 11 11 11 12 12 11 11 11 11 11 10 10 10 10 10 10 9 8 8 8 7 6
16 16 15 14 11 9 8 6 4 3 1 1 2 3 4 5 5 6 7 8 9 9 9 9 10 10 11 11 10 10 10 10 10 9 9 8 8 9 8 8 7 7 7 6
18 17 16 15 13 11 9 8 6 5 3 2 2 3 2 3 4 5 6 7 7 8 8 8 8 9 9 9 10 9 9 9 9 8 8 7 7 7 7 7 6 6 6 6
20 19 18 16 15 13 11 9 8 7 6 5 4 4 3 3 2 3 4 5 5 6 6 6 7 7 8 8 8 8 8 8 8 8 7 7 6 6 6 5 6 6 6 6
21 20 19 17 16 14 13 11 10 8 8 6 6 5 4 4 3 2 3 3 4 4 5 5 6 7 7 7 7 7 7 7 7 7 7 7 7 6 6 5 5 6 6 6
22 22 20 18 17 16 15 13 13 11 10 9 8 7 5 5 5 4 3 2 3 3 3 4 4 5 6 6 6 7 7 6 7 7 7 7 7 7 6 6 6 6 6 7
23 22 20 20 19 18 16 15 14 13 12 12 11 9 7 7 7 6 4 3 2 2 1 1 2 3 4 5 5 6 7 6 7 7 7 7 7 7 7 6 6 7 8 8
24 23 22 21 20 19 18 17 17 15 14 14 12 11 10 9 8 7 6 5 4 3 3 3 3 4 5 5 5 6 7 7 7 8 7 7 8 8 8 7 8 8 8 9
26 25 24 23 23 21 20 20 19 17 16 15 15 13 11 11 11 9 8 7 6 5 5 4 4 5 5 6 7 7 8 8 8 9 8 9 9 10 10 10 11 10 10 11
27 26 25 25 24 24 23 22 21 21 19 18 17 15 13 13 12 11 10 8 8 8 7 7 7 7 7 7 8 8 9 9 10 10 10 10 11 11 12 12 12 12 12 13
28 28 27 27 27 26 26 25 24 23 22 21 20 17 15 14 14 12 11 11 10 10 10 9 9 9 9 10 11 11 11 11 11 12 12 12 12 13 14 14 14 14 14 13
30 30 29 28 27 27 27 26 26 25 25 24 22 20 17 15 15 14 13 14 13 12 12 12 12 12 12 13 13 14 14 13 13 13 14 14 14 14 14 15 15 15 15 14
31 31 30 29 29 29 29 28 28 28 27 26 24 22 19 18 17 17 16 16 16 16 15 15 15 15 15 15 16 16 16 16 16 16 15 15 15 15 16 16 16 16 16 16
32 31 31 31 30 31 31 30 29 29 28 27 25 23 22 21 20 19 19 19 18 18 18 18 18 19 19 19 18 18 19 18 18 18 17 17 18 18 18 17 17 17 17 17
35 33 32 32 32 32 33 31 31 31 30 29 28 26 24 23 23 22 22 22 22 22 21 20 21 22 22 22 22 21 21 20 20 20 20 20 20 20 21 21 20 20 20 20
36 35 34 34 34 35 33 32 32 32 32 31 30 29 28 26 26 25 25 24 24 24 24 23 24 25 25 25 24 24 23 23 22 22 22 22 23 23 23 23 23 22 22 22
36 35 35 35 36 36 35 34 33 33 33 32 31 31 30 29 28 27 27 26 26 26 26 26 26 26 26 26 26 25 24 24 23 23 24 24 25 25 25 25 25 25 25 25
37 37 37 37 37 37 36 34 33 33 34 32 32 32 32 32 31 29 28 28 28 28 27 27 26 26 27 27 27 26 26 26 26 26 26 27 27 27 27 27 27 27 28 27
38 38 37 37 37 36 35 34 33 34 33 32 32 32 33 33 32 31 31 30 30 30 30 30 29 28 28 28 28 28 28 27 28 28 28 28 28 28 28 28 28 28 28 28
38 38 38 37 37 35 33 34 34 34 34 33 33 33 34 33 33 33 32 32 31 32 32 32 30 29 29 29 29 29 29 29 30 30 30 30 30 29 29 29 29 29 30 30
37 37 37 37 36 35 35 35 35 34 34 34 34 34 35 34 34 34 34 34 33 33 33 33 32 31 30 31 31 31 31 32 32 32 33 33 32 32 32 32 31 31 31 31
38 37 37 37 37 36 36 36 36 36 35 35 35 35 35 34 35 35 36 36 35 35 34 34 33 32 32 32 32 33 33 33 33 34 34 35 35 35 35 34 34 33 33 32
36 37 37 37 36 36 36 36 36 35 36 36 36 36 36 36 36 37 37 37 37 37 36 36 36 35 35 35 35 35 36 36 35 35 36 36 36 37 36 36 35 34 34 34
36 36 36 36 36 37 37 37 36 36 36 36 36 37 38 38 38 38 38 38 38 38 37 38 38 38 37 37 37 37 38 38 38 37 37 37 38 38 37 37 36 35 35 35

GEFSCGP_500_meanwind_288.txt.gz
Wind_Speed
10 10 9 9 8 7 8 7 6 6 7 8 9 9 9 9 9 9 10 9 10 10 11 11 11 10 10 10 10 10 10 10 10 10 9 9 8 8 8 8 7 7 6 6
11 10 10 10 9 7 7 6 5 5 5 6 7 7 7 7 8 8 8 8 9 9 9 10 10 10 10 10 10 10 10 10 10 9 9 8 9 9 9 8 7 7 6 6
13 12 11 11 9 7 6 6 5 3 4 4 5 6 6 5 6 7 7 7 7 8 8 9 9 9 9 8 9 9 9 9 9 9 8 8 8 9 8 8 7 6 6 5
15 14 13 11 10 8 7 6 4 2 2 2 3 3 4 4 4 5 6 6 6 6 7 7 7 7 7 7 7 8 8 8 8 8 7 7 7 7 7 7 6 5 5 5
16 16 14 13 11 10 9 6 4 3 1 1 1 2 2 2 2 3 4 5 5 5 6 6 6 6 6 6 6 7 7 7 7 7 6 6 6 6 6 6 6 5 5 5
19 18 16 14 13 12 9 7 5 3 3 3 2 0 1 1 1 1 2 3 3 4 4 5 5 5 6 6 6 6 6 6 6 6 5 5 5 4 5 5 5 5 6 6
20 19 17 15 14 13 11 8 5 5 5 5 4 3 3 2 1 1 2 2 2 2 3 4 4 4 5 5 5 6 6 6 5 4 5 5 5 5 4 5 5 5 5 6
20 19 19 17 16 14 12 10 8 7 6 6 6 5 4 4 3 2 2 3 2 2 2 2 4 4 5 5 5 5 5 5 5 5 5 5 6 6 6 6 6 6 6 7
21 21 20 19 18 17 15 13 11 9 8 6 7 6 5 5 4 4 4 3 3 3 3 3 3 4 4 5 5 5 5 5 5 6 5 6 6 7 7 7 8 8 8 9
23 22 21 21 19 19 17 15 13 11 10 8 8 7 6 6 6 6 6 6 5 5 5 5 5 5 5 6 6 6 6 6 6 7 7 7 8 8 8 9 9 10 10 10
25 24 23 22 21 20 19 18 15 14 12 10 10 10 9 8 8 8 8 8 7 7 7 7 7 7 7 7 7 8 8 8 8 8 9 9 10 10 11 11 11 11 11 12
26 25 24 24 23 22 21 19 18 16 16 14 12 12 11 10 9 9 9 9 9 9 9 9 9 8 9 9 9 9 9 9 10 11 11 11 11 12 12 12 12 13 13 14
28 28 26 25 25 25 24 22 21 19 19 17 14 14 14 13 12 11 11 12 12 11 11 11 11 11 11 12 12 12 12 12 12 13 13 13 13 14 14 14 13 13 15 16
30 30 28 26 25 25 25 24 23 22 20 19 18 17 16 15 14 14 14 14 14 14 13 13 13 13 13 14 15 15 16 16 15 15 15 15 15 15 15 15 15 15 16 17
32 32 31 29 28 27 26 26 25 24 23 21 20 19 18 18 17 16 16 16 16 16 16 16 16 16 16 17 17 18 18 18 18 18 18 18 17 17 16 16 16 17 18 18
34 33 32 31 30 29 28 27 26 26 25 24 23 23 22 20 19 18 18 18 19 18 19 19 19 19 19 19 20 20 21 21 21 21 21 20 20 19 18 18 19 19 19 20
35 34 33 32 31 31 31 30 28 28 27 26 25 25 25 23 22 20 20 20 21 21 21 21 21 21 21 21 22 22 23 24 23 23 23 23 23 22 21 21 21 21 21 21
36 35 34 33 33 33 31 30 30 29 29 28 28 27 26 26 24 23 22 22 23 23 23 23 23 24 24 24 24 25 25 25 24 25 25 25 24 24 23 23 23 22 22 22
37 37 36 34 34 33 33 31 30 30 31 30 29 28 28 28 27 26 25 25 25 25 25 25 25 26 26 26 26 27 27 27 26 26 25 25 24 25 25 24 24 25 25 24
38 38 37 36 34 33 33 32 31 30 31 31 30 30 30 29 29 28 27 27 27 27 27 27 27 27 27 27 28 28 28 28 27 27 27 26 26 26 27 26 26 27 27 27
38 38 38 37 35 34 34 33 31 32 32 31 30 30 30 31 31 30 29 29 29 29 29 29 29 29 29 29 29 30 29 29 29 29 29 29 29 29 28 28 28 28 28 28
37 38 38 37 36 35 35 34 34 33 33 32 31 30 30 30 31 31 31 31 31 31 31 31 31 31 31 31 31 31 31 31 31 31 30 30 31 31 29 29 29 30 30 30
37 38 38 38 38 37 35 34 34 34 33 32 32 31 31 31 31 32 32 32 33 33 33 32 32 33 33 33 32 32 33 33 33 32 32 31 32 31 31 31 31 31 31 31
37 39 38 37 37 37 36 35 35 34 33 32 32 32 32 32 32 33 33 33 33 33 33 34 34 34 34 34 34 33 34 34 34 34 34 33 33 33 33 33 33 32 32 32
36 37 37 37 36 35 35 34 34 34 34 34 34 33 33 33 34 34 34 34 34 34 34 34 34 34 34 35 35 36 36 36 35 35 35 34 34 34 34 34 33 34 34 33
33 35 35 36 35 34 34 35 35 35 35 34 35 35 35 35 35 35 35 35 35 36 36 35 35 36 36 37 37 36 36 36 36 36 35 36 36 35 35 35 35 35 35 35

GEFSCGP_500_meanwind_294.txt.gz
Wind_Speed
7 6 4 2 3 4 2 3 3 1 4 6 7 8 10 10 10 11 11 11 12 12 12 11 11 10 10 10 10 10 10 9 9 8 8 7 6 6 6 5 6 7 7 7
7 5 5 4 4 4 3 2 2 1 4 5 5 7 8 10 10 9 9 10 10 11 11 11 11 10 10 10 10 11 11 10 10 9 9 8 6 6 5 5 5 6 6 6
8 6 7 7 6 5 4 3 3 0 2 4 4 5 8 10 9 8 8 9 9 9 10 10 11 11 10 10 10 10 11 11 10 10 10 10 8 7 6 6 5 5 6 6
10 10 9 8 8 6 5 4 5 3 1 2 4 5 7 7 9 8 7 8 8 9 9 10 10 10 10 10 10 10 11 11 11 10 9 9 8 8 8 7 7 6 7 7
10 11 11 9 9 9 7 7 7 5 3 2 3 5 6 6 6 7 6 6 7 7 8 8 9 9 10 10 10 10 10 10 10 10 9 9 9 8 8 8 8 8 7 7
13 13 13 11 11 9 7 6 5 3 3 4 4 5 6 7 7 7 7 5 6 7 7 7 8 9 9 10 10 9 9 10 10 10 10 9 9 9 9 9 9 8 8 8
14 14 14 12 12 10 9 7 5 5 6 5 4 6 8 10 10 9 7 5 5 6 7 7 8 9 9 10 10 10 10 10 10 10 10 10 10 10 9 9 9 9 10 9
15 15 15 14 13 12 10 10 6 6 4 3 6 8 8 10 11 10 7 5 5 6 6 6 7 8 8 9 10 10 10 11 11 11 10 10 10 10 10 10 10 10 11 11
16 15 15 15 15 14 12 10 7 8 7 6 8 10 10 10 10 10 9 8 7 7 7 7 8 7 8 8 9 10 10 11 12 12 11 11 11 11 11 12 12 12 11 12
20 18 17 16 16 15 14 11 10 11 10 10 10 11 11 10 10 11 10 9 7 8 8 8 9 9 9 9 10 10 11 11 12 13 13 12 12 13 13 14 14 13 13 13
21 20 19 18 18 16 15 14 14 14 13 11 11 11 11 10 11 12 11 11 10 8 10 10 11 11 11 11 11 11 12 12 12 13 14 13 13 14 14 15 15 15 15 15
24 21 21 20 18 17 17 16 16 16 15 14 15 16 11 10 12 13 12 12 13 11 12 11 12 12 12 12 12 12 12 13 13 14 15 14 15 15 16 16 16 17 17 16
27 27 24 21 20 20 18 18 18 17 17 18 17 16 13 13 13 14 14 14 14 14 14 14 13 13 13 13 14 13 14 15 15 16 16 16 17 17 17 17 17 17 17 17
28 29 27 24 21 20 20 19 19 20 19 20 18 16 16 17 16 16 17 16 16 17 17 16 16 15 15 15 16 16 16 17 17 17 18 19 19 19 18 18 19 19 19 19
31 30 30 28 25 23 23 22 20 21 22 21 19 19 18 20 20 19 19 20 19 19 18 18 17 17 17 18 18 18 18 18 19 19 20 21 21 20 20 20 20 20 20 20
33 33 32 31 29 26 24 24 22 21 21 21 22 21 21 22 23 23 22 20 20 20 20 19 19 19 20 20 20 20 20 20 20 21 22 23 22 22 22 22 22 21 22 22
34 34 34 33 31 29 28 26 25 25 24 24 24 24 23 24 25 24 24 22 20 21 21 21 21 21 21 22 22 22 22 22 22 23 23 24 24 23 24 24 23 23 24 24
35 35 34 33 31 32 30 26 26 27 27 27 27 25 26 28 28 27 26 24 23 24 24 23 24 24 23 24 24 25 25 25 25 25 26 26 26 25 25 25 25 26 26 26
36 36 35 34 33 33 30 28 28 30 31 30 29 27 28 29 30 30 30 28 26 26 26 26 27 26 25 26 26 27 27 27 27 27 27 28 28 27 26 26 27 27 28 28
34 35 34 34 34 33 30 30 32 33 33 31 30 30 31 30 29 30 32 30 29 28 28 29 29 28 28 28 29 29 29 29 29 29 29 29 29 28 28 28 29 29 29 29
33 34 34 34 34 34 33 32 33 33 35 33 32 31 32 32 31 32 33 33 32 31 31 31 31 31 30 30 31 31 31 31 31 32 31 31 31 31 30 30 30 31 31 31
32 33 35 35 35 34 34 35 36 36 35 34 33 32 32 33 33 33 33 33 34 33 33 33 33 33 33 33 33 33 33 33 33 33 33 33 33 33 32 32 32 32 33 33
34 34 34 36 36 36 36 36 37 37 36 35 35 35 34 33 35 35 34 34 34 34 34 34 34 33 33 34 34 34 34 34 35 35 35 34 35 35 35 34 35 35 35 35
36 35 36 36 37 38 38 37 37 38 38 38 37 36 36 35 35 36 36 36 35 35 35 35 35 35 34 34 35 35 36 36 36 37 37 37 37 37 37 36 37 37 37 37
35 36 38 38 39 39 39 40 39 38 39 39 39 39 37 36 36 36 36 36 36 36 36 36 36 35 35 35 35 36 37 37 38 38 38 38 39 38 38 38 38 38 37 38
36 37 38 40 39 38 38 39 40 40 39 39 39 39 38 36 35 36 36 36 36 36 36 35 35 36 35 36 37 38 38 39 39 39 40 40 40 40 40 40 39 39 38 38

GEFSCGP_500_meanwind_300.txt.gz
Wind_Speed
12 12 10 10 10 9 7 5 6 6 6 7 8 10 11 12 13 14 14 14 14 14 13 14 14 14 14 13 12 11 10 10 9 9 9 9 8 7 6 6 6 6 5 4
12 11 11 11 9 7 6 5 5 3 2 3 5 7 9 10 12 12 12 12 12 13 13 13 14 13 13 13 12 11 11 10 9 9 9 9 8 7 7 5 6 6 7 6
13 12 11 9 7 8 6 4 3 2 3 2 3 6 7 9 9 10 10 11 11 12 12 12 13 13 12 12 12 12 12 11 10 9 10 10 9 8 7 7 7 7 6 6
15 12 11 9 7 6 6 4 3 2 1 1 1 4 5 5 7 8 9 10 10 11 11 11 12 12 12 12 11 12 12 12 11 10 10 10 9 9 8 8 7 6 7 7
16 14 12 11 8 7 6 5 4 4 3 2 3 5 4 4 6 7 8 9 9 9 9 10 10 10 11 11 11 11 12 12 11 11 10 10 9 9 9 9 8 7 7 7
17 15 13 11 9 8 8 8 6 6 6 5 4 6 4 3 4 5 7 7 7 8 8 8 9 9 9 10 10 10 11 11 11 11 10 10 10 10 10 10 9 8 7 7
17 16 12 11 11 10 10 11 9 8 8 6 6 6 4 3 2 3 6 6 6 6 6 6 7 8 7 8 9 10 10 11 11 11 11 10 10 10 10 10 10 9 8 8
17 17 14 12 10 11 10 12 12 11 8 6 7 7 5 3 2 3 4 6 6 6 6 6 6 7 6 7 8 9 10 10 11 11 10 10 10 10 10 10 10 10 10 10
17 16 16 14 12 12 11 12 13 12 11 10 8 8 7 4 3 4 5 5 5 5 5 6 6 6 6 6 7 8 9 9 10 10 10 10 10 11 11 11 11 12 12 11
19 18 17 15 15 14 13 12 13 14 12 11 10 9 7 5 5 6 7 7 6 6 6 7 7 7 6 7 7 8 9 9 10 10 10 10 11 11 11 12 12 13 12 12
21 21 19 18 18 17 16 16 15 15 15 14 13 11 8 7 7 6 6 7 7 8 8 8 8 8 7 8 8 9 10 10 10 10 11 11 11 12 12 12 13 13 13 13
22 23 22 21 20 21 19 18 18 17 16 16 15 14 11 11 10 8 7 9 9 10 10 9 9 9 9 9 9 10 11 11 11 11 12 12 13 13 13 13 13 13 13 14
25 25 24 24 24 24 23 22 20 19 18 18 18 17 15 15 14 12 11 11 11 11 12 11 11 11 12 11 11 12 12 12 13 13 13 14 14 14 14 14 14 14 15 15
28 28 27 26 25 26 26 24 22 21 20 20 20 20 19 17 16 15 15 14 13 13 13 13 12 13 13 14 14 14 15 15 15 16 15 15 14 15 16 16 16 16 16 16
30 30 29 28 26 27 27 26 25 24 23 22 20 21 21 20 19 18 18 17 16 16 15 15 15 15 16 16 17 17 17 17 17 17 17 17 17 17 17 17 18 18 18 18
33 32 31 30 29 29 28 27 27 27 26 25 23 22 22 23 21 20 20 20 19 18 17 17 17 17 18 18 19 19 19 20 19 20 19 19 19 19 19 19 19 20 20 21
34 33 33 32 32 32 32 29 28 27 27 27 27 26 25 24 24 24 24 23 22 21 21 20 20 20 21 20 21 21 21 21 22 22 22 21 21 21 21 22 22 22 22 23
35 34 34 33 33 35 32 31 30 30 30 29 29 29 28 26 24 24 25 24 24 23 23 23 24 23 23 23 23 23 23 23 24 24 24 24 23 24 23 23 24 23 24 25
37 36 35 35 35 35 33 32 32 32 32 32 30 29 28 27 26 27 26 26 26 27 26 26 26 25 25 25 25 25 25 25 26 26 26 25 25 25 25 25 26 26 27 27
36 36 36 37 37 37 35 33 33 33 34 33 33 32 30 29 29 29 29 28 28 29 28 27 27 27 26 26 26 27 27 27 28 28 28 28 28 28 27 27 27 28 28 28
36 36 37 38 39 38 36 34 33 35 34 33 34 34 32 32 32 31 31 31 30 30 30 29 29 28 28 28 28 29 30 30 30 30 30 29 29 30 30 30 29 29 30 29
37 37 38 38 38 37 36 36 35 33 33 33 34 34 34 34 34 33 32 32 32 32 31 30 29 28 29 30 30 31 31 32 32 32 31 31 31 31 31 31 32 32 32 32
37 37 37 38 37 35 35 34 33 34 33 33 34 34 35 36 35 35 35 34 34 33 33 32 31 30 30 31 32 32 32 32 32 32 32 32 33 33 33 34 34 34 34 34
36 37 37 37 36 35 34 35 34 34 34 33 34 34 35 35 36 37 36 36 35 33 34 34 32 32 32 33 34 34 34 34 33 33 33 33 33 34 34 35 35 36 36 36
35 35 35 36 35 34 34 34 34 35 35 35 35 34 34 35 35 36 37 36 36 36 36 35 34 34 34 34 35 35 35 35 35 34 34 34 35 36 36 36 36 37 37 38
34 35 36 36 35 35 34 33 34 35 36 36 36 36 36 35 36 36 37 37 36 35 35 36 36 35 35 35 35 36 36 36 35 35 36 37 37 38 38 38 39 39 40 40

GEFSCGP_500_meanwind_306.txt.gz
Wind_Speed
10 9 8 8 7 6 6 6 6 5 5 7 8 9 8 9 10 10 10 10 11 11 11 11 11 11 11 11 11 10 10 9 9 10 9 9 9 9 8 7 6 5 5 4
11 9 9 8 7 6 5 5 4 4 3 4 5 6 6 7 7 8 8 9 10 10 10 10 10 11 11 11 11 11 11 10 9 9 9 9 9 9 8 7 7 6 6 5
12 11 10 9 8 7 6 5 4 2 1 1 3 3 3 5 6 6 6 7 8 9 9 9 10 10 10 10 10 10 10 10 10 10 9 9 9 9 9 8 8 8 7 6
14 13 12 10 9 8 7 6 5 3 2 1 0 1 1 2 4 5 5 5 5 7 8 8 9 9 9 9 10 10 10 9 10 10 9 9 8 8 8 8 8 9 8 8
15 14 12 11 10 10 8 7 7 6 4 2 2 2 1 0 1 3 4 4 4 5 6 7 8 8 9 9 10 10 9 9 10 10 10 9 9 9 9 9 8 9 9 8
17 16 14 13 12 12 11 9 9 8 7 5 5 5 3 2 1 2 3 3 4 4 5 5 6 7 8 8 9 9 10 9 9 10 10 9 9 10 10 10 9 10 10 10
18 17 16 14 13 13 13 11 10 11 10 8 7 7 5 4 3 2 2 2 3 3 4 4 5 6 6 7 8 8 9 9 9 10 10 10 10 10 10 10 10 10 10 10
19 19 17 16 14 13 14 13 13 12 12 11 9 8 6 5 5 4 4 3 2 2 3 3 4 5 5 6 7 8 8 9 9 10 10 10 10 10 10 10 11 11 11 11
20 20 19 18 16 15 15 15 14 15 15 14 12 10 8 7 7 6 5 5 4 4 4 4 5 5 5 5 6 7 8 9 8 9 10 10 10 10 11 12 12 12 12 12
22 21 21 20 19 17 17 16 16 16 16 16 15 13 11 9 8 8 8 7 6 6 6 6 6 6 6 6 7 8 8 9 9 9 10 10 10 11 12 13 13 13 13 13
24 24 22 22 22 20 19 19 19 19 18 18 17 14 12 11 11 11 10 9 8 8 8 8 8 8 8 8 8 9 10 10 10 11 11 11 11 12 12 13 14 14 15 15
25 25 25 24 24 22 22 21 21 21 20 20 20 17 14 14 13 13 12 11 11 11 10 10 10 11 11 11 11 11 11 12 12 13 13 13 13 13 13 14 15 15 16 16
27 27 27 26 26 26 24 23 23 23 22 22 22 19 17 16 15 15 14 14 13 13 13 12 12 12 13 13 13 13 14 14 15 15 15 15 15 15 15 15 16 16 17 17
29 29 28 28 27 26 26 26 26 25 25 24 23 21 20 19 17 16 16 17 16 16 16 15 15 14 14 14 14 15 15 16 16 17 17 17 18 18 17 17 18 18 19 19
32 32 30 29 28 28 27 27 27 27 27 26 25 24 22 21 19 18 18 19 18 18 17 17 17 16 16 16 16 17 17 18 18 18 18 18 19 19 19 19 20 21 21 21
34 34 32 32 31 30 30 29 28 28 28 28 28 26 24 23 22 21 21 20 20 20 20 19 18 19 19 19 18 18 19 19 19 20 20 20 21 21 21 22 23 23 23 24
36 35 34 34 33 33 32 30 30 30 29 29 29 27 27 25 24 24 23 22 22 22 22 22 21 22 22 22 21 20 20 21 21 21 22 22 22 23 24 24 25 25 26 26
37 37 36 35 34 36 33 31 31 31 31 31 30 29 28 27 26 26 25 24 24 24 24 24 24 24 24 24 24 23 23 23 24 23 24 24 24 25 26 26 27 27 27 28
38 37 36 36 36 35 34 32 31 32 32 31 31 30 30 29 28 28 28 28 27 26 26 26 26 26 26 26 26 26 26 25 25 25 25 27 27 27 27 28 29 30 30 30
37 37 37 36 36 36 33 32 32 33 33 31 31 31 30 30 30 29 29 30 29 29 28 28 27 28 28 28 28 28 28 27 27 27 28 29 30 30 30 30 31 31 31 31
37 37 38 37 37 36 33 33 33 34 33 32 31 31 30 30 31 30 30 31 30 30 29 29 29 30 30 30 30 30 31 30 30 30 30 31 32 32 32 33 33 33 32 33
37 37 38 38 38 36 34 34 33 33 33 33 33 32 32 32 31 31 32 32 32 32 32 32 32 32 32 33 33 33 33 33 33 33 33 33 33 34 34 34 34 35 35 35
36 37 38 38 38 36 36 35 34 34 34 34 35 35 34 33 33 32 33 33 34 35 35 35 35 34 34 35 35 35 35 34 34 34 34 35 35 36 35 36 36 36 36 36
37 37 38 38 37 36 36 35 35 35 35 35 36 36 35 34 33 33 34 35 35 36 37 36 36 36 36 36 36 36 37 36 36 36 36 36 37 37 36 37 37 37 37 37
37 36 37 37 36 36 36 36 36 35 36 36 36 36 36 35 33 33 35 36 35 35 36 37 38 37 36 37 37 36 37 37 37 38 38 38 38 38 38 38 38 38 38 39
37 36 36 36 36 35 35 36 36 35 35 36 37 37 36 36 35 35 35 35 36 36 36 36 36 36 36 37 37 36 37 38 38 37 38 39 39 39 39 39 38 39 40 40

GEFSCGP_500_meanwind_312.txt.gz
Wind_Speed
7 6 5 5 4 4 4 3 2 3 3 4 5 5 6 6 7 7 7 6 5 6 6 7 7 7 7 7 8 8 8 8 8 8 8 8 7 7 7 6 6 6 5 4
8 7 6 5 4 3 3 2 1 1 2 3 4 5 5 6 6 6 6 6 5 5 6 6 7 8 7 7 7 7 7 8 8 8 8 8 7 7 7 7 7 6 6 6
10 9 8 7 4 3 3 2 2 1 1 3 4 5 5 5 5 5 6 6 4 4 4 6 6 7 7 6 6 7 7 7 7 7 7 7 7 7 7 7 7 7 7 6
11 10 9 8 7 5 4 4 4 3 1 3 4 4 5 5 5 5 5 4 4 3 3 4 5 6 6 6 5 5 6 6 7 7 7 7 7 8 8 8 8 8 7 7
12 11 11 10 8 7 6 5 5 4 3 3 4 3 4 5 5 5 5 4 4 3 3 4 4 5 6 6 6 5 5 6 7 7 7 7 8 8 8 9 9 9 8 8
13 12 12 11 10 9 8 7 7 7 5 5 5 5 4 5 5 5 5 5 4 4 4 3 4 4 5 6 6 6 5 6 6 7 7 7 8 9 9 9 10 10 10 10
14 13 13 12 11 11 10 8 6 7 7 8 7 7 5 5 4 4 5 5 5 5 5 4 3 3 4 5 6 6 6 6 6 6 7 8 8 9 9 10 10 10 10 10
16 16 15 14 13 12 11 10 9 9 9 9 9 8 6 6 5 5 5 5 5 5 5 5 5 4 5 6 6 6 7 7 7 7 7 8 9 9 10 10 10 11 11 11
18 18 17 16 15 15 13 12 12 11 11 10 9 9 7 6 6 7 7 7 6 6 6 6 6 6 6 7 7 8 8 8 8 9 9 9 10 10 10 10 11 12 12 12
20 20 19 18 18 17 16 14 13 12 12 12 10 10 8 8 8 8 8 9 9 9 8 8 8 8 8 9 10 10 9 10 10 10 10 11 11 11 12 12 12 12 13 13
22 21 20 20 20 19 18 17 16 16 15 14 13 12 12 11 10 10 10 10 10 10 10 10 10 10 10 11 11 11 11 11 11 12 12 12 12 13 13 13 13 13 14 14
24 23 23 22 22 22 21 20 18 18 18 17 16 14 14 13 12 12 12 13 13 12 12 11 12 12 13 13 13 13 13 14 14 14 14 14 14 15 15 15 15 15 15 15
26 26 24 23 23 24 24 23 21 20 20 19 18 16 16 15 15 14 14 15 15 15 15 15 14 14 15 15 15 15 16 16 17 16 16 16 16 16 17 17 16 16 17 17
28 28 27 25 24 24 25 24 23 22 22 21 20 18 18 18 17 17 16 16 17 18 18 17 17 16 16 17 17 18 18 18 18 18 18 18 18 18 19 19 19 19 19 19
30 30 29 29 28 27 27 26 25 24 24 24 23 22 21 20 19 18 18 18 18 19 19 19 19 18 18 19 19 19 19 20 20 20 19 19 19 19 20 20 20 20 21 22
32 32 30 30 29 30 29 28 27 27 26 26 25 24 22 22 21 20 20 20 20 20 21 21 21 21 21 21 21 21 21 21 22 21 21 21 21 21 21 21 22 23 23 24
33 33 32 31 30 31 31 29 28 29 28 27 27 26 25 24 23 21 21 22 21 21 21 22 22 23 23 24 24 24 24 24 24 24 24 24 24 24 23 24 24 25 26 26
34 34 34 32 33 35 32 29 29 30 29 29 29 27 27 26 25 24 23 23 23 23 24 24 25 25 26 26 26 26 27 26 26 26 27 27 27 27 27 27 27 28 28 27
35 34 34 34 34 35 34 31 31 31 30 29 29 28 28 26 26 27 26 26 25 25 26 26 27 28 28 28 28 28 28 29 29 29 29 30 30 30 29 29 30 30 31 30
35 34 35 35 35 34 32 31 30 30 31 30 29 29 28 28 28 28 27 28 27 28 28 28 29 29 29 30 30 30 30 30 30 30 31 32 32 32 32 32 32 33 33 33
35 35 35 35 35 34 32 30 29 30 30 30 30 30 29 29 29 29 29 30 29 29 30 29 29 30 31 32 31 31 31 31 32 32 33 33 34 34 34 35 35 35 35 35
35 35 35 35 34 34 33 32 31 31 30 31 30 30 30 30 30 30 30 31 31 31 31 30 29 30 31 32 33 33 32 33 33 34 34 34 35 36 36 37 37 37 37 37
35 34 34 34 33 33 32 32 31 31 31 32 32 31 30 30 30 30 31 32 32 32 32 31 31 31 31 32 33 33 33 34 35 35 36 36 37 38 39 39 39 39 39 39
35 34 34 33 33 32 32 32 31 31 32 32 32 32 32 32 31 32 32 32 32 32 32 32 32 32 32 33 34 35 36 36 36 36 37 37 38 39 40 40 40 41 41 40
35 34 34 33 32 32 32 32 32 32 32 32 32 33 33 33 32 33 33 32 32 33 33 34 34 33 34 35 36 36 37 37 37 37 38 38 38 40 40 41 41 41 41 41
34 34 33 33 33 33 33 33 33 33 33 33 32 32 33 34 34 34 34 34 33 33 34 34 35 35 35 36 36 37 37 36 36 36 38 39 39 40 41 42 41 41 42 41